| time (UTC) | temp F | wind direction | speed MPH | gust MPH | rain 1hr in | rain 24hr in | rain mn in | humidity % | barometer mb |
| 20260510214504 | 59 | 22 | 0.0 | 2.0 | 0.00 | 0.04 | 0.04 | 83 | |
| 20260510214003 | 59 | 25 | 0.0 | 2.0 | 0.00 | 0.04 | 0.04 | 84 | |
| 20260510213503 | 60 | 24 | 0.0 | 3.0 | 0.00 | 0.04 | 0.04 | 84 | |
| 20260510213004 | 60 | 22 | 0.0 | 3.0 | 0.00 | 0.04 | 0.04 | 84 | |
| 20260510212503 | 60 | 22 | 0.0 | 2.0 | 0.00 | 0.04 | 0.04 | 84 | |
| 20260510212003 | 60 | 22 | 0.0 | 2.0 | 0.00 | 0.04 | 0.04 | 84 | |
| 20260510211503 | 60 | 22 | 0.0 | 3.0 | 0.00 | 0.04 | 0.04 | 84 | |
| 20260510211003 | 60 | 22 | 0.0 | 3.0 | 0.00 | 0.04 | 0.04 | 84 | |
| 20260510210503 | 60 | 20 | 0.0 | 2.0 | 0.00 | 0.04 | 0.04 | 84 | |
| 20260510210004 | 60 | 19 | 0.0 | 2.0 | 0.00 | 0.04 | 0.04 | 84 | |
| 20260510205503 | 60 | 22 | 0.0 | 2.0 | 0.00 | 0.04 | 0.04 | 84 | |
| 20260510205003 | 60 | 22 | 0.0 | 1.0 | 0.00 | 0.04 | 0.04 | 84 | |
| 20260510204503 | 60 | 12 | 0.0 | 2.0 | 0.01 | 0.04 | 0.04 | 83 | |
| 20260510204003 | 60 | 18 | 0.0 | 2.0 | 0.01 | 0.04 | 0.04 | 83 | |
| 20260510203504 | 60 | 24 | 0.0 | 2.0 | 0.01 | 0.04 | 0.04 | 83 | |
| 20260510203003 | 60 | 52 | 0.0 | 1.0 | 0.01 | 0.04 | 0.04 | 83 | |
| 20260510202503 | 60 | 22 | 0.0 | 2.0 | 0.01 | 0.04 | 0.04 | 83 | |
| 20260510202003 | 59 | 22 | 0.0 | 2.0 | 0.01 | 0.04 | 0.04 | 82 | |
| 20260510201503 | 59 | 22 | 0.0 | 2.0 | 0.01 | 0.04 | 0.04 | 82 | |
| 20260510201003 | 59 | 0 | 0.0 | 0.0 | 0.01 | 0.04 | 0.04 | 81 | |
| 20260510200503 | 60 | 101 | 0.0 | 1.0 | 0.01 | 0.04 | 0.04 | 81 | |
| 20260510200004 | 60 | 177 | 0.0 | 2.0 | 0.01 | 0.04 | 0.04 | 81 | |
| 20260510195503 | 60 | 32 | 0.0 | 3.0 | 0.01 | 0.04 | 0.04 | 81 | |
| 20260510195003 | 60 | 22 | 0.0 | 3.0 | 0.01 | 0.04 | 0.04 | 81 | |
| 20260510194503 | 60 | 29 | 1.0 | 3.0 | 0.00 | 0.02 | 0.02 | 80 | |
| 20260510194003 | 60 | 40 | 1.0 | 3.0 | 0.00 | 0.02 | 0.02 | 80 | |
| 20260510193503 | 60 | 25 | 2.0 | 3.0 | 0.00 | 0.02 | 0.02 | 79 | |
| 20260510193003 | 60 | 9 | 0.0 | 2.0 | 0.00 | 0.02 | 0.02 | 79 | |
| 20260510192503 | 60 | 22 | 0.0 | 2.0 | 0.00 | 0.02 | 0.02 | 78 | |
| 20260510192003 | 60 | 24 | 0.0 | 2.0 | 0.00 | 0.02 | 0.02 | 78 | |
| 20260510191504 | 61 | 38 | 1.0 | 2.0 | 0.00 | 0.02 | 0.02 | 78 | |
| 20260510191003 | 61 | 178 | 0.0 | 1.0 | 0.00 | 0.02 | 0.02 | 78 | |
| 20260510190503 | 61 | 116 | 0.0 | 2.0 | 0.00 | 0.02 | 0.02 | 77 | |
| 20260510190003 | 61 | 27 | 0.0 | 2.0 | 0.00 | 0.02 | 0.02 | 77 | |
| 20260510185503 | 61 | 348 | 0.0 | 2.0 | 0.00 | 0.02 | 0.02 | 77 | |
| 20260510185003 | 61 | 349 | 0.0 | 2.0 | 0.00 | 0.02 | 0.02 | 76 | |
| 20260510184503 | 62 | 55 | 0.0 | 1.0 | 0.00 | 0.02 | 0.02 | 76 | |
| 20260510184003 | 62 | 76 | 0.0 | 2.0 | 0.00 | 0.02 | 0.02 | 76 | |
| 20260510183503 | 62 | 34 | 0.0 | 2.0 | 0.00 | 0.02 | 0.02 | 75 | |
| 20260510183003 | 62 | 71 | 0.0 | 2.0 | 0.00 | 0.02 | 0.02 | 75 | |
| 20260510182503 | 62 | 30 | 0.0 | 4.0 | 0.00 | 0.02 | 0.02 | 74 | |
| 20260510182003 | 62 | 27 | 0.0 | 4.0 | 0.00 | 0.02 | 0.02 | 74 | |
| 20260510181503 | 62 | 137 | 0.0 | 2.0 | 0.00 | 0.02 | 0.02 | 73 | |
| 20260510181003 | 62 | 22 | 0.0 | 1.0 | 0.00 | 0.02 | 0.02 | 73 | |
| 20260510180503 | 62 | 22 | 0.0 | 1.0 | 0.01 | 0.02 | 0.02 | 72 | |
| 20260510180003 | 62 | 203 | 0.0 | 1.0 | 0.01 | 0.02 | 0.02 | 72 | |
| 20260510175503 | 62 | 202 | 0.0 | 1.0 | 0.01 | 0.02 | 0.02 | 72 | |
| 20260510175003 | 62 | 22 | 0.0 | 3.0 | 0.01 | 0.02 | 0.02 | 71 | |
| 20260510174503 | 62 | 24 | 0.0 | 3.0 | 0.01 | 0.02 | 0.02 | 71 | |
| 20260510174003 | 62 | 112 | 0.0 | 2.0 | 0.01 | 0.02 | 0.02 | 71 | |
| 20260510173503 | 63 | 154 | 0.0 | 2.0 | 0.01 | 0.02 | 0.02 | 71 | |
| 20260510173003 | 63 | 71 | 0.0 | 1.0 | 0.01 | 0.02 | 0.02 | 71 | |
| 20260510172503 | 62 | 33 | 0.0 | 2.0 | 0.01 | 0.02 | 0.02 | 71 | |
| 20260510172003 | 62 | 15 | 0.0 | 2.0 | 0.01 | 0.02 | 0.02 | 70 | |
| 20260510171503 | 62 | 309 | 0.0 | 1.0 | 0.01 | 0.02 | 0.02 | 69 | |
| 20260510171003 | 62 | 331 | 0.0 | 1.0 | 0.01 | 0.02 | 0.02 | 69 | |
| 20260510170503 | 62 | 191 | 0.0 | 2.0 | 0.00 | 0.01 | 0.01 | 68 | |
| 20260510170003 | 62 | 17 | 0.0 | 3.0 | 0.00 | 0.01 | 0.01 | 68 | |
| 20260510165503 | 62 | 6 | 0.0 | 3.0 | 0.00 | 0.01 | 0.01 | 67 | |
| 20260510165003 | 62 | 357 | 0.0 | 2.0 | 0.00 | 0.01 | 0.01 | 66 | |
| 20260510164505 | 62 | 349 | 0.0 | 2.0 | 0.00 | 0.01 | 0.01 | 66 | |
| 20260510164005 | 62 | 189 | 0.0 | 3.0 | 0.00 | 0.01 | 0.01 | 66 | |
| 20260510163505 | 63 | 74 | 1.0 | 3.0 | 0.00 | 0.01 | 0.01 | 66 | |
| 20260510163005 | 63 | 17 | 0.0 | 2.0 | 0.00 | 0.01 | 0.01 | 67 | |
| 20260510162505 | 63 | 286 | 0.0 | 2.0 | 0.00 | 0.01 | 0.01 | 67 | |
| 20260510162005 | 63 | 346 | 0.0 | 2.0 | 0.00 | 0.01 | 0.01 | 67 | |
| 20260510161505 | 63 | 357 | 0.0 | 2.0 | 0.01 | 0.01 | 0.01 | 68 | |
| 20260510161005 | 62 | 184 | 0.0 | 1.0 | 0.01 | 0.01 | 0.01 | 68 | |
| 20260510160505 | 62 | 187 | 0.0 | 1.0 | 0.01 | 0.01 | 0.01 | 68 | |
| 20260510160005 | 62 | 262 | 0.0 | 2.0 | 0.01 | 0.01 | 0.01 | 68 | |
| 20260510155505 | 62 | 303 | 0.0 | 2.0 | 0.01 | 0.01 | 0.01 | 68 | |
| 20260510155005 | 62 | 305 | 0.0 | 2.0 | 0.01 | 0.01 | 0.01 | 68 | |
| 20260510154505 | 62 | 13 | 0.0 | 2.0 | 0.01 | 0.01 | 0.01 | 68 | |
| 20260510154005 | 62 | 52 | 0.0 | 2.0 | 0.01 | 0.01 | 0.01 | 67 | |
| 20260510153505 | 62 | 344 | 0.0 | 3.0 | 0.01 | 0.01 | 0.01 | 67 | |
| 20260510153005 | 62 | 264 | 1.0 | 3.0 | 0.01 | 0.01 | 0.01 | 66 | |
| 20260510152505 | 62 | 286 | 1.0 | 3.0 | 0.01 | 0.01 | 0.01 | 65 | |
| 20260510152005 | 62 | 12 | 0.0 | 5.0 | 0.01 | 0.01 | 0.01 | 63 | |
| 20260510151505 | 62 | 258 | 1.0 | 5.0 | 0.00 | 0.00 | 0.00 | 62 | |
| 20260510151005 | 62 | 259 | 1.0 | 2.0 | 0.00 | 0.00 | 0.00 | 60 | |
| 20260510150505 | 63 | 293 | 0.0 | 7.0 | 0.00 | 0.00 | 0.00 | 58 | |
| 20260510150005 | 63 | 265 | 0.0 | 7.0 | 0.00 | 0.00 | 0.00 | 58 | |
| 20260510145505 | 64 | 270 | 2.0 | 7.0 | 0.00 | 0.00 | 0.00 | 57 | |
| 20260510145005 | 64 | 300 | 2.0 | 5.0 | 0.00 | 0.00 | 0.00 | 55 | |
| 20260510144505 | 64 | 270 | 2.0 | 8.0 | 0.00 | 0.00 | 0.00 | 54 | |
| 20260510144005 | 64 | 268 | 2.0 | 9.0 | 0.00 | 0.00 | 0.00 | 54 | |
| 20260510143505 | 64 | 285 | 4.0 | 9.0 | 0.00 | 0.00 | 0.00 | 53 | |
| 20260510143005 | 64 | 278 | 2.0 | 8.0 | 0.00 | 0.00 | 0.00 | 52 | |
| 20260510142505 | 64 | 275 | 2.0 | 8.0 | 0.00 | 0.00 | 0.00 | 52 | |
| 20260510142005 | 65 | 306 | 4.0 | 8.0 | 0.00 | 0.00 | 0.00 | 50 | |
| 20260510141505 | 65 | 327 | 2.0 | 10.0 | 0.00 | 0.00 | 0.00 | 47 | |
| 20260510141005 | 66 | 353 | 3.0 | 10.0 | 0.00 | 0.00 | 0.00 | 44 | |
| 20260510140505 | 67 | 357 | 1.0 | 5.0 | 0.00 | 0.00 | 0.00 | 43 | |
| 20260510140005 | 67 | 299 | 1.0 | 5.0 | 0.00 | 0.00 | 0.00 | 43 | |
| 20260510135505 | 67 | 287 | 1.0 | 8.0 | 0.00 | 0.00 | 0.00 | 44 | |
| 20260510135005 | 67 | 274 | 1.0 | 9.0 | 0.00 | 0.00 | 0.00 | 43 | |
| 20260510134505 | 67 | 254 | 3.0 | 13.0 | 0.00 | 0.00 | 0.00 | 42 | |
| 20260510134005 | 68 | 278 | 2.0 | 13.0 | 0.00 | 0.00 | 0.00 | 41 | |
| 20260510133505 | 68 | 280 | 2.0 | 9.0 | 0.00 | 0.00 | 0.00 | 40 | |
| 20260510133005 | 68 | 289 | 2.0 | 11.0 | 0.00 | 0.00 | 0.00 | 39 | |
| 20260510132505 | 69 | 301 | 2.0 | 11.0 | 0.00 | 0.00 | 0.00 | 38 | |
| 20260510132005 | 69 | 290 | 4.0 | 11.0 | 0.00 | 0.00 | 0.00 | 37 | |
| 20260510131505 | 70 | 299 | 3.0 | 11.0 | 0.00 | 0.00 | 0.00 | 35 | |
| 20260510131005 | 70 | 311 | 2.0 | 11.0 | 0.00 | 0.00 | 0.00 | 35 | |
| 20260510130505 | 71 | 301 | 4.0 | 9.0 | 0.00 | 0.00 | 0.00 | 33 | |
| 20260510130005 | 71 | 283 | 4.0 | 9.0 | 0.00 | 0.00 | 0.00 | 33 | |
| 20260510125505 | 71 | 261 | 1.0 | 11.0 | 0.00 | 0.00 | 0.00 | 35 | |
| 20260510125005 | 71 | 250 | 3.0 | 11.0 | 0.00 | 0.00 | 0.00 | 36 | |
| 20260510124505 | 72 | 294 | 4.0 | 11.0 | 0.00 | 0.00 | 0.00 | 34 | |
| 20260510124005 | 72 | 319 | 2.0 | 8.0 | 0.00 | 0.00 | 0.00 | 36 | |
| 20260510123505 | 71 | 297 | 1.0 | 8.0 | 0.00 | 0.00 | 0.00 | 35 | |
| 20260510123005 | 71 | 257 | 2.0 | 8.0 | 0.00 | 0.00 | 0.00 | 35 | |
| 20260510122505 | 72 | 262 | 1.0 | 8.0 | 0.00 | 0.00 | 0.00 | 35 | |
| 20260510122005 | 71 | 292 | 2.0 | 8.0 | 0.00 | 0.00 | 0.00 | 36 | |
| 20260510121505 | 72 | 284 | 2.0 | 8.0 | 0.00 | 0.00 | 0.00 | 35 | |
| 20260510121005 | 72 | 269 | 1.0 | 5.0 | 0.00 | 0.00 | 0.00 | 37 | |
| 20260510120505 | 71 | 256 | 2.0 | 7.0 | 0.00 | 0.00 | 0.00 | 38 | |
| 20260510120005 | 71 | 250 | 2.0 | 7.0 | 0.00 | 0.00 | 0.00 | 38 | |
| 20260510115505 | 70 | 348 | 2.0 | 6.0 | 0.00 | 0.00 | 0.00 | 40 | |
| 20260510115005 | 69 | 334 | 2.0 | 6.0 | 0.00 | 0.00 | 0.00 | 40 | |
| 20260510114505 | 69 | 306 | 2.0 | 5.0 | 0.00 | 0.00 | 0.00 | 41 | |
| 20260510114005 | 69 | 317 | 2.0 | 5.0 | 0.00 | 0.00 | 0.00 | 41 | |
| 20260510113505 | 68 | 294 | 1.0 | 5.0 | 0.00 | 0.00 | 0.00 | 42 | |
| 20260510113005 | 68 | 294 | 1.0 | 7.0 | 0.00 | 0.00 | 0.00 | 41 | |
| 20260510112505 | 68 | 297 | 1.0 | 7.0 | 0.00 | 0.00 | 0.00 | 41 | |
| 20260510112005 | 68 | 294 | 2.0 | 7.0 | 0.00 | 0.00 | 0.00 | 40 | |
| 20260510111505 | 69 | 306 | 1.0 | 4.0 | 0.00 | 0.00 | 0.00 | 40 | |
| 20260510111005 | 69 | 319 | 1.0 | 4.0 | 0.00 | 0.00 | 0.00 | 39 | |
| 20260510110505 | 69 | 305 | 1.0 | 6.0 | 0.00 | 0.00 | 0.00 | 39 | |
| 20260510110005 | 69 | 280 | 1.0 | 6.0 | 0.00 | 0.00 | 0.00 | 39 | |
| 20260510105505 | 70 | 245 | 1.0 | 4.0 | 0.00 | 0.00 | 0.00 | 38 | |
| 20260510105005 | 70 | 234 | 0.0 | 4.0 | 0.00 | 0.00 | 0.00 | 38 | |
| 20260510104505 | 70 | 243 | 1.0 | 4.0 | 0.00 | 0.00 | 0.00 | 38 | |
| 20260510104005 | 70 | 223 | 2.0 | 4.0 | 0.00 | 0.00 | 0.00 | 39 | |
| 20260510103505 | 70 | 216 | 0.0 | 6.0 | 0.00 | 0.00 | 0.00 | 38 | |
| 20260510103005 | 69 | 240 | 0.0 | 6.0 | 0.00 | 0.00 | 0.00 | 40 | |
| 20260510102505 | 69 | 241 | 0.0 | 6.0 | 0.00 | 0.00 | 0.00 | 39 | |
| 20260510102005 | 69 | 270 | 1.0 | 4.0 | 0.00 | 0.00 | 0.00 | 39 | |
| 20260510101505 | 70 | 285 | 2.0 | 4.0 | 0.00 | 0.00 | 0.00 | 39 | |
| 20260510101005 | 69 | 259 | 2.0 | 3.0 | 0.00 | 0.00 | 0.00 | 40 | |
| 20260510100505 | 69 | 277 | 0.0 | 5.0 | 0.00 | 0.00 | 0.00 | 40 | |
| 20260510100005 | 69 | 284 | 0.0 | 5.0 | 0.00 | 0.00 | 0.00 | 40 | |
| 20260510095505 | 69 | 293 | 0.0 | 5.0 | 0.00 | 0.00 | 0.00 | 41 | |
| 20260510095005 | 68 | 281 | 2.0 | 5.0 | 0.00 | 0.00 | 0.00 | 40 | |
| 20260510094505 | 68 | 289 | 1.0 | 4.0 | 0.00 | 0.00 | 0.00 | 41 | |
| 20260510094005 | 68 | 295 | 1.0 | 6.0 | 0.00 | 0.00 | 0.00 | 41 | |
| 20260510093505 | 68 | 278 | 1.0 | 6.0 | 0.00 | 0.00 | 0.00 | 41 | |
| 20260510093005 | 68 | 275 | 2.0 | 5.0 | 0.00 | 0.00 | 0.00 | 41 | |
| 20260510092505 | 68 | 284 | 0.0 | 3.0 | 0.00 | 0.00 | 0.00 | 44 | |
| 20260510092005 | 68 | 279 | 2.0 | 4.0 | 0.00 | 0.00 | 0.00 | 44 | |
| 20260510091505 | 68 | 270 | 1.0 | 4.0 | 0.00 | 0.00 | 0.00 | 45 | |
| 20260510091005 | 68 | 264 | 0.0 | 4.0 | 0.00 | 0.00 | 0.00 | 45 | |
| 20260510090505 | 67 | 277 | 1.0 | 2.0 | 0.00 | 0.00 | 0.00 | 46 | |
| 20260510090005 | 67 | 282 | 1.0 | 4.0 | 0.00 | 0.00 | 0.00 | 46 | |
| 20260510085505 | 67 | 290 | 0.0 | 5.0 | 0.00 | 0.00 | 0.00 | 47 | |
| 20260510085005 | 66 | 288 | 0.0 | 5.0 | 0.00 | 0.00 | 0.00 | 47 | |
| 20260510084505 | 66 | 294 | 1.0 | 4.0 | 0.00 | 0.00 | 0.00 | 47 | |
| 20260510084005 | 66 | 267 | 1.0 | 4.0 | 0.00 | 0.00 | 0.00 | 47 | |
| 20260510083505 | 66 | 241 | 1.0 | 4.0 | 0.00 | 0.00 | 0.00 | 48 | |
| 20260510083005 | 66 | 267 | 1.0 | 3.0 | 0.00 | 0.00 | 0.00 | 48 | |
| 20260510082505 | 66 | 314 | 1.0 | 3.0 | 0.00 | 0.00 | 0.00 | 48 | |
| 20260510082005 | 66 | 277 | 2.0 | 4.0 | 0.00 | 0.00 | 0.00 | 48 | |
| 20260510081505 | 66 | 246 | 0.0 | 4.0 | 0.00 | 0.00 | 0.00 | 47 | |
| 20260510081005 | 66 | 196 | 2.0 | 3.0 | 0.00 | 0.00 | 0.00 | 47 | |
| 20260510080505 | 66 | 213 | 0.0 | 3.0 | 0.00 | 0.00 | 0.00 | 49 | |
| 20260510080005 | 66 | 245 | 0.0 | 4.0 | 0.00 | 0.00 | 0.00 | 49 | |
| 20260510075505 | 66 | 258 | 1.0 | 4.0 | 0.00 | 0.00 | 0.00 | 48 | |
| 20260510075005 | 66 | 292 | 0.0 | 3.0 | 0.00 | 0.00 | 0.00 | 47 | |
| 20260510074505 | 67 | 286 | 0.0 | 3.0 | 0.00 | 0.00 | 0.00 | 46 | |
| 20260510074005 | 67 | 254 | 1.0 | 3.0 | 0.00 | 0.00 | 0.00 | 44 | |
| 20260510073505 | 67 | 257 | 1.0 | 3.0 | 0.00 | 0.00 | 0.00 | 43 | |
| 20260510073005 | 67 | 305 | 0.0 | 3.0 | 0.00 | 0.00 | 0.00 | 43 | |
| 20260510072505 | 67 | 315 | 1.0 | 4.0 | 0.00 | 0.00 | 0.00 | 45 | |
| 20260510072005 | 66 | 276 | 0.0 | 4.0 | 0.00 | 0.00 | 0.00 | 45 | |
| 20260510071505 | 66 | 268 | 0.0 | 3.0 | 0.00 | 0.00 | 0.00 | 45 | |
| 20260510071005 | 66 | 297 | 0.0 | 3.0 | 0.00 | 0.00 | 0.00 | 45 | |
| 20260510070505 | 66 | 230 | 0.0 | 2.0 | 0.00 | 0.00 | 0.00 | 46 | |
| 20260510070005 | 66 | 280 | 0.0 | 2.0 | 0.00 | 0.00 | 0.00 | 46 | |
| 20260510065505 | 65 | 2 | 0.0 | 2.0 | 0.00 | 0.00 | 0.00 | 46 | |
| 20260510065005 | 65 | 8 | 0.0 | 2.0 | 0.00 | 0.00 | 0.00 | 48 | |
| 20260510064505 | 64 | 257 | 0.0 | 2.0 | 0.00 | 0.00 | 0.00 | 51 | |
| 20260510064005 | 64 | 270 | 0.0 | 2.0 | 0.00 | 0.00 | 0.00 | 51 | |
| 20260510063505 | 63 | 334 | 0.0 | 2.0 | 0.00 | 0.00 | 0.00 | 52 | |
| 20260510063005 | 63 | 337 | 0.0 | 2.0 | 0.00 | 0.00 | 0.00 | 53 | |
| 20260510062505 | 62 | 18 | 0.0 | 2.0 | 0.00 | 0.00 | 0.00 | 55 | |
| 20260510062005 | 62 | 10 | 0.0 | 2.0 | 0.00 | 0.00 | 0.00 | 55 | |
| 20260510061505 | 62 | 7 | 0.0 | 2.0 | 0.00 | 0.00 | 0.00 | 55 | |
| 20260510061005 | 61 | 45 | 0.0 | 2.0 | 0.00 | 0.00 | 0.00 | 55 | |
| 20260510060505 | 61 | 45 | 0.0 | 1.0 | 0.00 | 0.00 | 0.00 | 56 | |
| 20260510060005 | 61 | 19 | 0.0 | 1.0 | 0.00 | 0.00 | 0.00 | 56 | |
| 20260510055505 | 61 | 356 | 0.0 | 1.0 | 0.00 | 0.00 | 0.00 | 57 | |
| 20260510055005 | 61 | 292 | 0.0 | 1.0 | 0.00 | 0.00 | 0.00 | 59 | |
| 20260510054505 | 61 | 297 | 0.0 | 1.0 | 0.00 | 0.00 | 0.00 | 59 | |
| 20260510054005 | 60 | 247 | 0.0 | 1.0 | 0.00 | 0.00 | 0.00 | 60 | |
| 20260510053505 | 60 | 209 | 0.0 | 1.0 | 0.00 | 0.00 | 0.00 | 61 | |
| 20260510053005 | 60 | 27 | 0.0 | 1.0 | 0.00 | 0.00 | 0.00 | 61 | |
| 20260510052505 | 59 | 170 | 0.0 | 2.0 | 0.00 | 0.00 | 0.00 | 61 | |
| 20260510052005 | 59 | 171 | 0.0 | 2.0 | 0.00 | 0.00 | 0.00 | 62 | |
| 20260510051505 | 59 | 8 | 0.0 | 2.0 | 0.00 | 0.00 | 0.00 | 63 | |
| 20260510051005 | 58 | 360 | 0.0 | 2.0 | 0.00 | 0.00 | 0.00 | 64 | |
| 20260510050505 | 58 | 360 | 0.0 | 2.0 | 0.00 | 0.00 | 0.00 | 64 | |
| 20260510050005 | 58 | 360 | 0.0 | 2.0 | 0.00 | 0.00 | 0.00 | 64 | |
| 20260510045505 | 58 | 0 | 0.0 | 0.0 | 0.00 | 0.00 | 0.00 | 64 | |
| 20260510045005 | 57 | 360 | 0.0 | 2.0 | 0.00 | 0.00 | 0.00 | 64 | |
| 20260510044505 | 57 | 360 | 0.0 | 2.0 | 0.00 | 0.00 | 0.00 | 63 | |
| 20260510044005 | 57 | 360 | 0.0 | 2.0 | 0.00 | 0.00 | 0.00 | 63 | |
| 20260510043505 | 58 | 360 | 0.0 | 2.0 | 0.00 | 0.00 | 0.00 | 63 | |
| 20260510043005 | 58 | 360 | 0.0 | 1.0 | 0.00 | 0.00 | 0.00 | 62 | |
| 20260510042504 | 58 | 360 | 0.0 | 1.0 | 0.00 | 0.00 | 0.00 | 62 | |
| 20260510042005 | 58 | 96 | 0.0 | 2.0 | 0.00 | 0.00 | 0.00 | 62 | |
| 20260510041505 | 58 | 84 | 0.0 | 2.0 | 0.00 | 0.00 | 0.00 | 61 | |
| 20260510041005 | 58 | 0 | 0.0 | 1.0 | 0.00 | 0.00 | 0.00 | 61 | |
| 20260510040504 | 58 | 0 | 0.0 | 0.0 | 0.00 | 0.00 | 0.00 | 59 | |
| 20260510040005 | 58 | 0 | 0.0 | 0.0 | 0.00 | 0.00 | 0.00 | 59 | |
| 20260510035504 | 58 | 0 | 0.0 | 0.0 | 0.00 | 0.00 | 0.00 | 59 | |
| 20260510035004 | 58 | 360 | 0.0 | 2.0 | 0.00 | 0.00 | 0.00 | 59 | |
| 20260510034504 | 58 | 360 | 0.0 | 2.0 | 0.00 | 0.00 | 0.00 | 59 | |
| 20260510034004 | 59 | 53 | 0.0 | 1.0 | 0.00 | 0.00 | 0.00 | 59 | |
| 20260510033504 | 59 | 152 | 0.0 | 2.0 | 0.00 | 0.00 | 0.00 | 58 | |
| 20260510033005 | 59 | 112 | 0.0 | 3.0 | 0.00 | 0.00 | 0.00 | 59 | |
| 20260510032504 | 59 | 108 | 0.0 | 3.0 | 0.00 | 0.00 | 0.00 | 59 | |
| 20260510032004 | 59 | 137 | 1.0 | 3.0 | 0.00 | 0.00 | 0.00 | 59 | |
| 20260510031504 | 59 | 213 | 0.0 | 2.0 | 0.00 | 0.00 | 0.00 | 59 | |
| 20260510031004 | 59 | 225 | 0.0 | 2.0 | 0.00 | 0.00 | 0.00 | 59 | |
| 20260510030504 | 59 | 0 | 0.0 | 0.0 | 0.00 | 0.00 | 0.00 | 59 | |
| 20260510030005 | 59 | 0 | 0.0 | 0.0 | 0.00 | 0.00 | 0.00 | 59 | |
| 20260510025504 | 59 | 280 | 0.0 | 1.0 | 0.00 | 0.00 | 0.00 | 59 | |
| 20260510025005 | 59 | 163 | 0.0 | 2.0 | 0.00 | 0.00 | 0.00 | 59 | |
| 20260510024504 | 59 | 152 | 0.0 | 2.0 | 0.00 | 0.00 | 0.00 | 59 | |
| 20260510024004 | 59 | 34 | 0.0 | 1.0 | 0.00 | 0.00 | 0.00 | 59 | |
| 20260510023504 | 59 | 360 | 0.0 | 2.0 | 0.00 | 0.00 | 0.00 | 59 | |
| 20260510023004 | 59 | 180 | 0.0 | 2.0 | 0.00 | 0.00 | 0.00 | 60 | |
| 20260510022505 | 59 | 0 | 0.0 | 0.0 | 0.00 | 0.00 | 0.00 | 59 | |
| 20260510022004 | 59 | 0 | 0.0 | 0.0 | 0.00 | 0.00 | 0.00 | 58 | |
| 20260510021505 | 59 | 0 | 0.0 | 2.0 | 0.00 | 0.00 | 0.00 | 58 | |
| 20260510021004 | 59 | 360 | 0.0 | 2.0 | 0.00 | 0.00 | 0.00 | 58 | |
| 20260510020504 | 59 | 360 | 0.0 | 2.0 | 0.00 | 0.00 | 0.00 | 58 | |
| 20260510020005 | 59 | 357 | 0.0 | 2.0 | 0.00 | 0.00 | 0.00 | 58 | |
| 20260510015504 | 59 | 348 | 0.0 | 2.0 | 0.00 | 0.00 | 0.00 | 57 | |
| 20260510015004 | 59 | 180 | 0.0 | 1.0 | 0.00 | 0.00 | 0.00 | 57 | |
| 20260510014504 | 59 | 360 | 0.0 | 1.0 | 0.00 | 0.00 | 0.00 | 57 | |
| 20260510014004 | 59 | 29 | 0.0 | 2.0 | 0.00 | 0.00 | 0.00 | 57 | |
| 20260510013504 | 59 | 29 | 0.0 | 2.0 | 0.00 | 0.00 | 0.00 | 56 | |
| 20260510013004 | 59 | 261 | 1.0 | 2.0 | 0.00 | 0.00 | 0.00 | 56 | |
| 20260510012505 | 59 | 360 | 1.0 | 2.0 | 0.00 | 0.00 | 0.00 | 56 | |
| 20260510012004 | 59 | 360 | 0.0 | 1.0 | 0.00 | 0.00 | 0.00 | 57 | |
| 20260510011504 | 59 | 202 | 0.0 | 1.0 | 0.00 | 0.00 | 0.00 | 57 | |
| 20260510011004 | 59 | 202 | 0.0 | 1.0 | 0.00 | 0.00 | 0.00 | 57 | |
| 20260510010504 | 59 | 202 | 0.0 | 2.0 | 0.00 | 0.00 | 0.00 | 56 | |
| 20260510010005 | 59 | 202 | 0.0 | 2.0 | 0.00 | 0.00 | 0.00 | 56 | |
| 20260510005504 | 59 | 202 | 0.0 | 2.0 | 0.00 | 0.00 | 0.00 | 56 | |
| 20260510005004 | 59 | 0 | 0.0 | 0.0 | 0.00 | 0.00 | 0.00 | 56 | |
| 20260510004504 | 59 | 225 | 0.0 | 1.0 | 0.00 | 0.00 | 0.00 | 56 | |
| 20260510004004 | 59 | 195 | 0.0 | 2.0 | 0.00 | 0.00 | 0.00 | 55 | |
| 20260510003504 | 59 | 197 | 0.0 | 2.0 | 0.00 | 0.00 | 0.00 | 55 | |
| 20260510003005 | 59 | 197 | 0.0 | 2.0 | 0.00 | 0.00 | 0.00 | 55 | |
| 20260510002504 | 59 | 190 | 0.0 | 2.0 | 0.00 | 0.00 | 0.00 | 55 | |
| 20260510002004 | 59 | 0 | 0.0 | 0.0 | 0.00 | 0.00 | 0.00 | 53 | |
| 20260510001504 | 59 | 0 | 0.0 | 0.0 | 0.00 | 0.00 | 0.00 | 53 | |
| 20260510001004 | 60 | 0 | 0.0 | 0.0 | 0.00 | 0.00 | 0.00 | 53 | |
| 20260510000504 | 60 | 162 | 0.0 | 1.0 | 0.00 | 0.00 | 0.00 | 52 | |
| 20260510000004 | 60 | 162 | 0.0 | 1.0 | 0.00 | 0.00 | 0.00 | 52 | |
| 20260509235504 | 60 | 189 | 0.0 | 2.0 | 0.00 | 0.00 | 0.00 | 51 | |
| 20260509235004 | 60 | 199 | 0.0 | 2.0 | 0.00 | 0.00 | 0.00 | 51 | |
| 20260509234504 | 60 | 202 | 0.0 | 2.0 | 0.00 | 0.00 | 0.00 | 51 | |
| 20260509234004 | 60 | 0 | 0.0 | 0.0 | 0.00 | 0.00 | 0.00 | 50 | |
| 20260509233504 | 60 | 0 | 0.0 | 0.0 | 0.00 | 0.00 | 0.00 | 49 | |
| 20260509233004 | 61 | 0 | 0.0 | 0.0 | 0.00 | 0.00 | 0.00 | 48 | |
| 20260509232504 | 61 | 197 | 0.0 | 2.0 | 0.00 | 0.00 | 0.00 | 48 | |
| 20260509232004 | 61 | 202 | 0.0 | 2.0 | 0.00 | 0.00 | 0.00 | 48 | |
| 20260509231504 | 61 | 200 | 0.0 | 2.0 | 0.00 | 0.00 | 0.00 | 47 | |
| 20260509231004 | 62 | 200 | 0.0 | 2.0 | 0.00 | 0.00 | 0.00 | 46 | |
| 20260509230504 | 63 | 201 | 1.0 | 2.0 | 0.00 | 0.00 | 0.00 | 45 | |
| 20260509230004 | 63 | 199 | 1.0 | 2.0 | 0.00 | 0.00 | 0.00 | 45 | |
| 20260509225504 | 63 | 0 | 0.0 | 0.0 | 0.00 | 0.00 | 0.00 | 43 | |
| 20260509225004 | 63 | 0 | 0.0 | 0.0 | 0.00 | 0.00 | 0.00 | 42 | |
| 20260509224504 | 64 | 0 | 0.0 | 0.0 | 0.00 | 0.00 | 0.00 | 43 | |
| 20260509224005 | 64 | 0 | 0.0 | 0.0 | 0.00 | 0.00 | 0.00 | 42 | |
| 20260509223504 | 64 | 0 | 0.0 | 0.0 | 0.00 | 0.00 | 0.00 | 42 | |
| 20260509223004 | 64 | 0 | 0.0 | 0.0 | 0.00 | 0.00 | 0.00 | 41 | |
| 20260509222504 | 64 | 0 | 0.0 | 0.0 | 0.00 | 0.00 | 0.00 | 41 | |
| 20260509222004 | 64 | 0 | 0.0 | 0.0 | 0.00 | 0.00 | 0.00 | 41 | |
| 20260509221504 | 64 | 0 | 0.0 | 0.0 | 0.00 | 0.00 | 0.00 | 41 | |
| 20260509221004 | 64 | 0 | 0.0 | 0.0 | 0.00 | 0.00 | 0.00 | 41 | |
| 20260509220504 | 64 | 270 | 0.0 | 1.0 | 0.00 | 0.00 | 0.00 | 41 | |
| 20260509220005 | 64 | 247 | 0.0 | 1.0 | 0.00 | 0.00 | 0.00 | 41 | |
| 20260509215504 | 64 | 236 | 0.0 | 1.0 | 0.00 | 0.00 | 0.00 | 41 | |
| 20260509215004 | 64 | 146 | 0.0 | 1.0 | 0.00 | 0.00 | 0.00 | 41 |